Location: Garden Park
(34.0906°N, 117.2695°W)
Time: 23:57:43
(UTC+00:00)

Hubble Space Telescope - Pass Details

Date: 16 August 2024
Orbit: 505 x 509 km, 28.5° (Epoch: 16 September)

Event Time Altitude Azimuth Distance (km) Brightness Sun altitude
Exits shadow 11:36:41 34° 183° (S) 838 1.4 -18.7°
Maximum altitude 11:36:54 35° 176° (S) 834 1.5 -18.7°
Drops below altitude 10° 11:40:31 10° 109° (ESE) 1,714 3.9 -18.1°
Sets 11:42:52 0° 101° (E) 2,601 5.0 -17.7°
